Latest Weather Observations for Darwin Airport

IDD60901

Issued at 9:31 am CST Tuesday 18 June 2019 (issued every 10 minutes, with the page automatically refreshed every 10 minutes)

About weather observations | Map of Darwin area stations | Latest observations for Darwin area | Other Formats
Station Details ID: 014015 Name: DARWIN AIRPORT Lat: -12.42 Lon: 130.89 Height: 30.4 m
Data from the previous 72 hours. | See also: Recent months at Darwin Airport
Date/Time
CST
Temp
°C
App
Temp
°C
Dew
Point
°C
Rel
Hum
%
Delta-T
°C
Wind Press
QNH
hPa
Press
MSL
hPa
Rain since
9am
mm
Dir  Spd
km/h
Gust
km/h
Spd
kts
Gust
kts
18/09:00am 24.0 23.0 15.5 59 5.1 SSE 15 20 8 11 1016.3 1016.1 0.2
18/08:30am 23.0 23.1 16.4 66 4.0 SE 11 17 6 9 1016.0 1015.8 0.2
18/08:00am 21.5 22.6 18.0 80 2.2 SE 9 13 5 7 1015.7 1015.5 0.2
18/07:30am 20.6 21.9 18.4 87 1.4 SE 9 13 5 7 1015.4 1015.2 0.0
18/07:00am 20.4 21.7 18.5 89 1.2 SSE 9 11 5 6 1015.1 1014.9 0.0
18/06:54am 20.4 21.7 18.5 89 1.2 SSE 9 11 5 6 1015.0 1014.8 0.0
18/06:30am 19.7 21.5 18.4 92 0.8 SSE 6 9 3 5 1014.8 1014.6 0.0
18/06:00am 19.7 21.8 18.1 90 1.0 SSE 4 6 2 3 1014.6 1014.4 0.0
18/05:30am 20.7 22.5 18.3 86 1.5 SSE 6 9 3 5 1014.6 1014.4 0.0
18/05:00am 21.3 22.5 18.3 83 1.9 SSE 9 11 5 6 1014.6 1014.4 0.0
18/04:30am 21.5 23.0 18.0 80 2.2 SSE 7 9 4 5 1014.6 1014.4 0.0
18/04:00am 21.5 23.3 18.3 82 2.0 SE 6 7 3 4 1014.6 1014.4 0.0
18/03:30am 20.9 22.5 18.2 84 1.7 SE 7 9 4 5 1014.8 1014.6 0.0
18/03:00am 20.8 22.7 18.6 87 1.4 SE 6 6 3 3 1015.0 1014.8 0.0
18/02:30am 20.9 24.0 18.7 87 1.4 CALM 0 0 0 0 1015.0 1014.8 0.0
18/02:00am 21.3 24.5 18.8 86 1.6 CALM 0 0 0 0 1015.1 1014.9 0.0
18/01:30am 21.5 24.7 18.8 84 1.7 CALM 0 0 0 0 1015.2 1015.0 0.0
18/01:00am 21.7 24.5 18.8 83 1.8 SSE 2 4 1 2 1015.2 1015.0 0.0
18/12:30am 22.0 24.0 18.7 81 2.1 SSE 6 6 3 3 1015.2 1015.0 0.0
18/12:04am 22.2 24.3 18.9 81 2.1 S 6 7 3 4 1015.3 1015.1 0.0
18/12:00am 22.4 24.5 18.9 80 2.2 SSW 6 7 3 4 1015.3 1015.1 0.0
 
Date/Time
CST
Temp
°C
App
Temp
°C
Dew
Point
°C
Rel
Hum
%
Delta-T
°C
Wind Press
QNH
hPa
Press
MSL
hPa
Rain since
9am
mm
Dir  Spd
km/h
Gust
km/h
Spd
kts
Gust
kts
17/11:30pm 23.8 25.7 18.6 72 3.3 SSW 6 6 3 3 1015.4 1015.2 0.0
17/11:00pm 23.5 25.9 18.8 75 3.0 S 4 6 2 3 1015.3 1015.1 0.0
17/10:51pm 23.5 25.9 18.8 75 3.0 S 4 4 2 2 1015.3 1015.1 0.0
17/10:30pm 23.6 26.7 18.7 74 3.1 CALM 0 4 0 2 1015.2 1015.0 0.0
17/10:00pm 23.8 26.6 18.8 73 3.2 ENE 2 6 1 3 1014.9 1014.7 0.0
17/09:30pm 24.2 25.3 18.9 72 3.4 NE 11 15 6 8 1014.6 1014.4 0.0
17/09:00pm 24.6 24.8 18.6 69 3.8 NE 15 19 8 10 1014.2 1014.0 0.0
17/08:30pm 24.9 25.4 18.3 66 4.2 NE 13 17 7 9 1014.0 1013.8 0.0
17/08:00pm 25.2 25.4 17.7 63 4.7 NE 13 17 7 9 1013.7 1013.5 0.0
17/07:30pm 25.8 25.6 17.5 60 5.2 NNE 15 19 8 10 1013.2 1013.0 0.0
17/07:00pm 26.2 25.8 17.2 57 5.6 NE 15 19 8 10 1012.6 1012.4 0.0
17/06:30pm 26.8 25.9 17.8 57 5.7 NNE 19 24 10 13 1012.4 1012.2 0.0
17/06:00pm 27.9 26.7 17.4 52 6.6 NNE 20 28 11 15 1011.9 1011.7 0.0
17/05:30pm 29.0 27.6 16.9 48 7.6 NNE 20 28 11 15 1011.5 1011.3 0.0
17/05:00pm 31.6 28.6 10.6 27 12.1 ENE 17 26 9 14 1011.3 1011.1 0.0
17/04:30pm 31.9 28.7 9.8 25 12.6 E 17 26 9 14 1011.1 1010.9 0.0
17/04:00pm 32.1 28.7 9.3 24 12.9 E 17 30 9 16 1011.2 1011.0 0.0
17/03:30pm 31.8 26.8 9.6 25 12.6 E 26 35 14 19 1011.3 1011.1 0.0
17/03:00pm 32.0 26.6 9.4 24 12.8 E 28 39 15 21 1011.6 1011.4 0.0
17/02:30pm 32.3 27.3 9.6 24 12.9 E 26 37 14 20 1011.9 1011.7 0.0
17/02:00pm 32.2 28.5 10.0 25 12.7 E 20 30 11 16 1012.2 1012.0 0.0
17/01:30pm 31.7 27.0 10.7 27 12.1 E 26 37 14 20 1012.8 1012.6 0.0
17/01:00pm 30.8 26.0 11.6 30 11.2 E 28 41 15 22 1013.6 1013.4 0.0
17/12:30pm 30.4 26.2 12.4 33 10.6 ESE 26 39 14 21 1014.3 1014.1 0.0
17/12:00pm 29.6 25.3 13.1 36 9.8 E 28 39 15 21 1014.8 1014.6 0.0
17/11:30am 29.4 24.6 13.0 36 9.7 E 30 41 16 22 1015.3 1015.1 0.0
17/11:00am 29.5 26.7 14.3 39 9.2 E 22 35 12 19 1015.7 1015.5 0.0
17/10:30am 27.8 29.3 18.8 58 5.8 SE 9 15 5 8 1015.9 1015.7 0.0
17/10:00am 27.1 28.4 19.4 62 5.0 SSE 11 15 6 8 1016.1 1015.9 0.0
17/09:30am 26.0 28.2 21.2 75 3.2 SSE 11 15 6 8 1016.2 1016.0 0.0
17/09:00am 24.7 27.6 21.7 83 2.0 SSE 9 13 5 7 1016.0 1015.8 0.0
17/08:30am 23.7 26.9 21.7 88 1.3 SSE 7 9 4 5 1015.5 1015.3 0.0
17/08:00am 23.0 26.3 21.8 93 0.8 S 7 9 4 5 1015.1 1014.9 0.0
17/07:48am 22.6 25.7 21.5 93 0.7 S 7 11 4 6 1015.0 1014.8 0.0
17/07:30am 22.3 25.4 21.4 95 0.6 S 7 9 4 5 1014.9 1014.7 0.0
17/07:00am 22.1 25.1 21.2 95 0.6 SSE 7 9 4 5 1014.7 1014.5 0.0
17/06:30am 21.5 24.2 20.7 95 0.5 SSE 7 9 4 5 1014.5 1014.3 0.0
17/06:00am 21.3 23.9 20.5 95 0.5 SSE 7 9 4 5 1014.3 1014.1 0.0
17/05:30am 21.5 24.1 20.4 93 0.7 S 7 7 4 4 1014.2 1014.0 0.0
17/05:00am 20.8 24.4 19.7 93 0.7 CALM 0 0 0 0 1014.2 1014.0 0.0
17/04:30am 20.7 24.3 19.8 95 0.6 CALM 0 0 0 0 1014.1 1013.9 0.0
17/04:00am 20.8 24.3 19.5 92 0.8 CALM 0 0 0 0 1014.2 1014.0 0.0
17/03:30am 21.2 25.1 20.4 95 0.5 CALM 0 0 0 0 1014.3 1014.1 0.0
17/03:00am 21.3 24.7 20.2 93 0.7 NNE 2 2 1 1 1014.4 1014.2 0.0
17/02:30am 21.5 24.4 20.6 95 0.6 NNE 6 7 3 4 1014.7 1014.5 0.0
17/02:00am 22.0 24.8 20.9 93 0.7 NE 7 13 4 7 1014.8 1014.6 0.0
17/01:30am 22.8 26.4 21.3 91 1.0 E 4 6 2 3 1014.8 1014.6 0.0
17/01:00am 23.0 26.2 21.3 90 1.1 SSE 6 7 3 4 1014.7 1014.5 0.0
17/12:30am 23.0 26.3 21.5 91 1.0 SE 6 7 3 4 1014.7 1014.5 0.0
17/12:00am 22.7 26.3 21.3 92 0.9 ESE 4 6 2 3 1014.8 1014.6 0.0
 
Date/Time
CST
Temp
°C
App
Temp
°C
Dew
Point
°C
Rel
Hum
%
Delta-T
°C
Wind Press
QNH
hPa
Press
MSL
hPa
Rain since
9am
mm
Dir  Spd
km/h
Gust
km/h
Spd
kts
Gust
kts
16/11:30pm 23.8 26.7 21.8 88 1.3 S 9 11 5 6 1014.6 1014.4 0.0
16/11:00pm 24.1 26.6 21.7 86 1.6 S 11 13 6 7 1014.6 1014.4 0.0
16/10:30pm 24.4 27.5 21.5 84 1.9 SSW 7 9 4 5 1014.3 1014.1 0.0
16/10:00pm 24.4 27.7 21.4 83 2.0 SSW 6 7 3 4 1014.3 1014.1 0.0
16/09:30pm 24.6 27.3 20.6 78 2.6 SSW 7 11 4 6 1014.0 1013.8 0.0
16/09:00pm 25.3 27.8 20.2 73 3.3 SW 7 9 4 5 1013.7 1013.5 0.0
16/08:30pm 25.6 27.8 19.7 70 3.8 WSW 7 9 4 5 1013.3 1013.1 0.0
16/08:00pm 25.5 27.5 20.0 71 3.6 W 9 9 5 5 1012.9 1012.7 0.0
16/07:30pm 26.0 28.1 19.3 66 4.3 WNW 7 9 4 5 1012.6 1012.4 0.0
16/07:00pm 26.7 28.6 18.9 62 5.0 WNW 7 9 4 5 1012.3 1012.1 0.0
16/06:30pm 27.2 28.5 17.5 55 6.1 NW 7 9 4 5 1011.8 1011.6 0.0
16/06:00pm 27.8 28.9 17.9 54 6.3 NNW 9 11 5 6 1011.3 1011.1 0.0
16/05:30pm 28.4 28.7 18.0 53 6.6 NNW 13 22 7 12 1011.2 1011.0 0.0
16/05:00pm 28.6 28.9 18.8 55 6.3 NNW 15 19 8 10 1011.1 1010.9 0.0
16/04:30pm 28.7 28.6 18.8 55 6.4 NNW 17 20 9 11 1011.0 1010.8 0.0
16/04:00pm 29.4 29.3 18.7 52 6.9 NNW 17 20 9 11 1011.0 1010.8 0.0
16/03:30pm 29.6 29.7 19.1 53 6.8 NNW 17 22 9 12 1011.2 1011.0 0.0
16/03:00pm 29.7 29.4 19.1 53 6.9 NNW 19 22 10 12 1011.5 1011.3 0.0
16/02:30pm 28.9 29.1 19.4 56 6.2 NW 17 22 9 12 1011.9 1011.7 0.0
16/02:00pm 28.2 28.4 19.3 58 5.8 NW 17 26 9 14 1012.2 1012.0 0.0
16/01:30pm 31.2 30.3 14.9 37 10.0 WNW 13 20 7 11 1012.6 1012.4 0.0
16/01:00pm 30.5 31.2 16.1 41 9.0 WNW 7 15 4 8 1013.2 1013.0 0.0
16/12:30pm 30.3 29.4 16.8 44 8.5 ESE 17 28 9 15 1013.7 1013.5 0.0
16/12:00pm 29.7 30.4 18.0 49 7.5 ESE 11 19 6 10 1014.2 1014.0 0.0
16/11:30am 28.6 29.1 18.3 53 6.6 ESE 13 19 7 10 1014.8 1014.6 0.0
16/11:00am 28.4 29.3 19.3 57 5.9 ENE 13 19 7 10 1015.1 1014.9 0.0
16/10:30am 27.7 28.3 19.4 60 5.4 ENE 15 22 8 12 1015.4 1015.2 0.0
16/10:00am 27.1 29.1 19.9 64 4.7 ENE 9 15 5 8 1015.7 1015.5 0.0
16/09:30am 26.7 29.3 20.1 67 4.3 E 6 15 3 8 1015.8 1015.6 0.0
16/09:00am 25.9 28.2 19.4 67 4.2 SE 6 9 3 5 1015.6 1015.4 0.0
16/08:30am 25.0 27.4 19.6 72 3.5 SE 6 6 3 3 1015.3 1015.1 0.0
16/08:00am 23.4 26.3 20.6 84 1.8 ESE 6 7 3 4 1014.9 1014.7 0.0
16/07:30am 21.5 24.4 19.9 91 1.0 SE 4 6 2 3 1014.5 1014.3 0.0
16/07:00am 21.3 23.8 19.9 92 0.9 E 6 6 3 3 1014.2 1014.0 0.0
16/06:30am 19.8 23.1 19.0 95 0.5 CALM 0 7 0 4 1013.8 1013.6 0.0
16/06:00am 20.0 23.1 18.7 92 0.8 CALM 0 0 0 0 1013.4 1013.2 0.0
16/05:30am 20.0 23.3 19.0 94 0.6 CALM 0 0 0 0 1013.2 1013.0 0.0
16/05:00am 20.8 23.6 19.7 93 0.7 SSE 4 4 2 2 1013.1 1012.9 0.0
16/04:30am 20.3 23.3 19.2 93 0.7 ESE 2 2 1 1 1013.2 1013.0 0.0
16/04:00am 20.5 23.5 19.2 92 0.8 SSE 2 4 1 2 1013.0 1012.8 0.0
16/03:30am 20.6 23.6 19.2 92 0.9 SSE 2 4 1 2 1013.1 1012.9 0.0
16/03:00am 21.6 24.1 19.9 90 1.1 SSE 6 6 3 3 1013.3 1013.1 0.0
16/02:30am 20.8 23.1 19.4 92 0.9 SE 6 6 3 3 1013.4 1013.2 0.0
16/02:00am 21.2 24.0 19.6 90 1.0 SE 4 4 2 2 1013.7 1013.5 0.0
16/01:30am 22.3 24.7 19.6 85 1.7 S 6 9 3 5 1014.1 1013.9 0.0
16/01:00am 22.6 25.2 20.1 86 1.6 S 6 7 3 4 1014.0 1013.8 0.0
16/12:30am 22.7 25.2 19.9 84 1.8 SSW 6 6 3 3 1013.9 1013.7 0.0
16/12:00am 21.4 24.5 19.5 89 1.2 SSW 2 6 1 3 1014.0 1013.8 0.0
 
Date/Time
CST
Temp
°C
App
Temp
°C
Dew
Point
°C
Rel
Hum
%
Delta-T
°C
Wind Press
QNH
hPa
Press
MSL
hPa
Rain since
9am
mm
Dir  Spd
km/h
Gust
km/h
Spd
kts
Gust
kts
15/11:30pm 21.7 24.8 19.5 87 1.4 SSW 2 4 1 2 1014.0 1013.8 0.0
15/11:00pm 22.7 25.6 19.9 84 1.8 SSW 4 6 2 3 1013.9 1013.7 0.0
15/10:30pm 23.4 25.8 19.7 80 2.4 SSW 6 7 3 4 1014.0 1013.8 0.0
15/10:00pm 23.6 25.5 19.7 79 2.5 SSW 9 11 5 6 1013.8 1013.6 0.0
15/09:30pm 22.8 25.3 18.2 75 2.9 SW 2 6 1 3 1013.6 1013.4 0.0
15/09:00pm 23.0 25.8 18.0 73 3.1 CALM 0 0 0 0 1013.4 1013.2 0.0
15/08:30pm 23.4 25.5 18.1 72 3.3 WSW 4 4 2 2 1013.1 1012.9 0.0
15/08:00pm 24.1 26.2 18.1 69 3.8 W 4 4 2 2 1012.8 1012.6 0.0
15/07:30pm 24.8 26.4 17.8 65 4.4 NNE 6 7 3 4 1012.5 1012.3 0.0
15/07:00pm 25.4 26.6 17.4 61 5.0 N 7 9 4 5 1012.1 1011.9 0.0
15/06:30pm 26.1 26.9 17.3 58 5.5 N 9 13 5 7 1011.8 1011.6 0.0
15/06:00pm 26.8 25.7 17.2 55 6.0 N 19 24 10 13 1011.4 1011.2 0.0
15/05:30pm 27.3 26.0 17.3 54 6.3 N 20 26 11 14 1011.4 1011.2 0.0
15/05:00pm 28.1 27.1 16.5 49 7.2 N 17 26 9 14 1011.3 1011.1 0.0
15/04:30pm 28.3 27.6 17.4 51 6.9 N 17 20 9 11 1011.2 1011.0 0.0
15/04:00pm 29.5 28.3 17.0 47 7.9 N 19 22 10 12 1011.1 1010.9 0.0
15/03:30pm 29.4 28.6 17.2 47 7.7 N 17 22 9 12 1011.2 1011.0 0.0
15/03:00pm 29.5 28.7 17.0 47 7.9 NNW 17 22 9 12 1011.3 1011.1 0.0
15/02:30pm 31.2 29.9 13.6 34 10.6 NW 13 20 7 11 1011.7 1011.5 0.0
15/02:00pm 31.4 30.3 13.0 32 11.0 SSE 11 19 6 10 1012.1 1011.9 0.0
15/01:30pm 30.6 28.8 13.4 35 10.3 ESE 15 24 8 13 1012.6 1012.4 0.0
15/01:00pm 30.2 28.1 13.7 36 9.9 ESE 17 26 9 14 1013.3 1013.1 0.0
15/12:30pm 30.1 28.0 14.7 39 9.4 ENE 19 28 10 15 1013.8 1013.6 0.0
15/12:00pm 29.6 28.1 14.2 39 9.3 E 15 24 8 13 1014.3 1014.1 0.0
15/11:30am 29.2 27.1 13.6 38 9.3 ENE 17 26 9 14 1014.7 1014.5 0.0
15/11:00am 29.2 27.9 15.7 44 8.3 E 17 24 9 13 1015.0 1014.8 0.0
15/10:30am 28.1 26.7 15.5 46 7.7 E 17 22 9 12 1015.1 1014.9 0.0
15/10:00am 27.8 28.5 17.1 52 6.7 ENE 9 13 5 7 1015.2 1015.0 0.0

Latest Capital City Observations: Canberra | Sydney | Melbourne | Brisbane | Adelaide | Perth | Hobart | Darwin

Other formats

Comma delimited format used in spreadsheet applications
http://www.bom.gov.au/fwo/IDD60901/IDD60901.94120.axf

JavaScript Object Notation format (JSON) in row-major order
http://www.bom.gov.au/fwo/IDD60901/IDD60901.94120.json

Data quality

Most of these data are generated automatically and are frequently updated. Quality checks on data are not normally performed. It is possible for incorrect values to appear. Refer to information at About Latest Weather Observations and please check the disclaimer before using these data.